Regional Weather Roundup
Issued by NWS Kansas City/Pleasant Hill, MO

Home | Current Version | Previous Version | Text Only | Print | Product List | Glossary On
Versions: 1 2 3 4 5 6 7 8 9 10 11 12 13 14 15 16 17 18 19 20 21 22 23 24 25 26 27 28 29 30 31 32 33 34 35 36 37 38 39 40 41 42 43 44 45 46 47 48 49 50
000
ASUS43 KEAX 010810
RWREAX

WEATHER ROUNDUP FOR EASTERN KANSAS AND NORTHWEST MISSOURI
NATIONAL WEATHER SERVICE KANSAS CITY/PLEASANT HILL MO
300 AM CDT SAT AUG 01 2015

KSZ040-057-103>105-MOZ028-029-037-043-010900-
...KANSAS CITY METROPOLITAN AREA...

CITY           SKY/WX    TMP DP  RH WIND       PRES   REMARKS
K.C. INTL      CLEAR     72  68  87 SE6       30.05F
K.C. DOWNTOWN  CLEAR     78  69  73 CALM      30.04F
LEES SUMMIT    CLEAR     75  64  68 S5        30.07F
OLATHE - IXD   CLEAR     73  67  81 S6        30.08F
OLATHE - OJC   CLEAR     71  66  84 S5        30.06F
LAWRENCE       CLEAR     68  67  96 CALM      30.06F

$$

MOZ001>008-011>017-020>025-030>033-038>040-044>046-053-054-010900-
...NORTHERN AND CENTRAL MISSOURI...

CITY           SKY/WX    TMP DP  RH WIND       PRES   REMARKS
ST. JOSEPH     CLEAR     73  70  90 CALM      30.05S
MOSBY            N/A     72  70  94 N3        30.05S
WARRENSBURG    CLEAR     70  64  83 S5        30.05F
WHITEMAN AFB   CLEAR     70  65  83 S6        30.05F
CLINTON        CLEAR     73  68  83 CALM      30.07S
SEDALIA        PTCLDY    71  66  84 CALM      30.07F
WARSAW         NOT AVBL
CHILLICOTHE      N/A     73  66  78 N3        30.06S
KIRKSVILLE     PTCLDY    72  66  81 E3        30.06F

$$

MOZ041-047>049-056>058-063>065-088>090-097-010900-
...EASTERN AND SOUTHERN MISSOURI...

CITY           SKY/WX    TMP DP  RH WIND       PRES   REMARKS
ST. LOUIS INTL PTCLDY    76  68  76 SW5       30.04S
SPIRIT OF STL  CLEAR     69  68  96 CALM      30.03S
COLUMBIA       PTCLDY    72  68  87 CALM      30.06F
JEFFERSON CITY CLEAR     69  67  93 CALM      30.04F
ROLLA          CLEAR     67  64  90 W3        30.06F
OSAGE BEACH    CLEAR     66  63  88 CALM      30.07F
SPRINGFIELD    CLEAR     66  60  81 CALM      30.08F
BRANSON        PTCLDY    68  63  83 CALM      30.10F
JOPLIN         CLEAR     63  58  83 CALM      30.08F
WEST PLAINS    CLEAR     68  63  84 CALM      30.10F

$$

IAZ060-094-KSZ022-034>040-054-083-096-NEZ052-066-093-010900-
...KANSAS...SOUTHEAST NEBRASKA AND IOWA...

CITY           SKY/WX    TMP DP  RH WIND       PRES   REMARKS
TOPEKA         CLEAR     73  71  93 CALM      30.06F
MANHATTAN      PTCLDY    71  70  96 CALM      30.06F
EMPORIA        CLEAR     70  68  93 CALM      30.09S
CHANUTE        CLEAR     70  68  93 CALM      30.07F
WICHITA        CLEAR     74  71  91 S5        30.09S
OMAHA          CLEAR     71  67  87 CALM      30.06F
LINCOLN        CLEAR     67  63  87 CALM      30.08F
FALLS CITY     CLEAR     70  68  93 CALM      30.04F
LAMONI         CLEAR     67  65  93 N5        30.07S
DES MOINES     PTCLDY    73  64  73 CALM      30.04F

$$




USA.gov is the U.S. government's official web portal to all federal, state and local government web resources and services.